BREEZE-M R/B (43868 NORAD) Tracking and Keplerian Element Data

This shows tracking and keplerian element data for the satellite.

Feedback or suggestion? Click here.




ElementValue
Catalog43868
NameBREEZE-M R/B
Epoch Orbit19
Epoch Day16.02023241
Epoch Year2019
RAAN212.3553
Inclination0.1365
Eccentricity0.0710332
Argument of Perigee124.6746
Mean Anonmoly19.9009
Mean Motion0.90469692
Decay Rate-9.8E-07
L11 43868U 18107B 19016.02023241 -.00000098 00000-0 00000+0 0 9994
L22 43868 0.1365 212.3553 0710332 124.6746 19.9009 0.90469692 196

Live tracking and technical data element details for BREEZE-M R/B (NORAD 43868). BREEZE-M R/B can be tracked NOW for your location showing map with azimuth and elevation plus other details from your city location.

Track the satellite on the map from your city or location and see movement details for azimuth, elevation, latitude, longitude, range, height, and movement on the map or in text.







IsCatalogInMostPopularTable: catalog: 43868, numindb: 13
Update: records affected: 1



GetName: 43868 BREEZE-M R/B

Hit Count: updated at: Thu, 17 Jan 2019 15:23:03 GMT